"Pseudo-MPEC" for P22pBcA

Created 2026 Sep 4 15:35:08 UT using Find_Orb

Click here for an explanation of pseudo-MPECs

 
 Astrometry: 
     P22pBcA 0C2026 07 16.49594623 01 01.987+17 09 36.81   ~94CZ 22.02GVNEOCPF52
     P22pBcA 0C2026 07 16.51924423 01 03.517+17 09 52.29   ~94CZ 22.18GVNEOCPF52
     P22pBcA 0C2026 07 16.53090123 01 04.280+17 10 00.01   ~94CZ 22.60GVNEOCPF52
     P22pBcA 0C2026 07 25.51204323 10 33.764+18 35 54.77   ~94D5 21.81wXNEOCPF52
     P22pBcA 0C2026 07 25.53531523 10 35.004+18 36 06.04   ~94D5 22.21wXNEOCPF52
     P22pBcA 0C2026 07 25.54747023 10 35.627+18 36 11.94   ~94D5 22.58wXNEOCPF52
     P22pBcA 0C2026 07 25.59873223 10 38.351+18 36 36.73   ~94D5 23.09GVNEOCPF52
     P22pBcA 0C2026 07 25.59936523 10 38.413+18 36 36.90   ~94D5 22.39GVNEOCPF52
     P22pBcA 0C2026 08 08.47585323 21 29.684+19 47 44.18   ~94CZ 21.97GVNEOCPF52
     P22pBcA 0C2026 08 08.48769923 21 30.049+19 47 45.59   ~94CZ 21.97GVNEOCPF52
     P22pBcA 0C2026 08 08.49960323 21 30.417+19 47 47.10   ~94CZ 21.72GVNEOCPF52
     P22pBcA 0C2026 08 14.56149023 24 36.859+19 49 22.03   ~94CZ 21.55GVNEOCPF51
     P22pBcA 0C2026 08 14.56213723 24 36.883+19 49 21.94   ~94CZ 20.70GVNEOCPF51
     P22pBcA*0C2026 09 04.38235423 28 23.753+17 09 51.95   ~94BK 21.37wXNEOCPF52
     P22pBcA 0C2026 09 04.39314923 28 23.688+17 09 42.88   ~94BK 21.04wXNEOCPF52
     P22pBcA 0C2026 09 04.40397023 28 23.622+17 09 34.05   ~94BK 21.28wXNEOCPF52
     P22pBcA 0C2026 09 04.41491423 28 23.547+17 09 24.95   ~94BK 21.15wXNEOCPF52

Station data:
(F51) Pan-STARRS 1, Haleakala  (N20.707234 W156.255910)  US/Hawaii.
   Observers J. Herman, T. Lowe, P. Minguez, A. Schultz, I. Smith. Measurers
   K. Chambers, T. de Boer, J. Fairlamb, H. Gao, M. Huber, C.-C. Lin, E.
   Magnier, Y. Ramanjooloo, R. Wainscoat, R. Weryk. 1.8-m Ritchey-Chrétien +
   CCD.
(F52) Pan-STARRS 2, Haleakala  (N20.707382 W156.255910)  US/Hawaii.
   Observers J. Herman, T. Lowe, P. Minguez, A. Schultz, I. Smith. Measurers
   K. Chambers, T. de Boer, J. Fairlamb, H. Gao, M. Huber, C.-C. Lin, E.
   Magnier, Y. Ramanjooloo, R. Wainscoat, R. Weryk. 1.8-m Ritchey-Chrétien +
   CCD.

Orbital elements:  P22pBcA
   Perihelion 2026 Aug 24.173937 +/- 0.00733 TT =  4:10:28.1 (JD 2461276.673937)
Epoch 2026 Sep  4.0 TT = JDT 2461287.5   Earth MOID: 0.6282      AutoNEOCP
M   2.562729542 +/- 0.0015          (J2000 ecliptic)
n   0.236718508 +/- 1.65e-5         Peri.  138.895192 +/- 0.0050
a   2.588101105 +/- 0.00012         Node   202.447506 +/- 0.0010
e   0.37783424 +/- 2.37e-5          Incl.   13.090239 +/- 0.00016
P   4.16363                H 20.29  G  0.15   U  5.4
q 1.610227867 +/- 1.42e-5    Q 3.565974343 +/- 0.000227
From 17 observations 2026 July 16-Sept. 4; mean residual 0".09
Residuals in arcseconds: 
260716 F52  .00   .00     260725 F52  .16-  .18+    260814 F51  .11+  .10-    
260716 F52  .04+  .04-    260725 F52  .24+  .05+    260904 F52  .08-  .07+    
260716 F52  .06+  .06-    260808 F52  .03+  .04+    260904 F52  .02-  .09-    
260725 F52  .01-  .01-    260808 F52  .03-  .02+    260904 F52  .05+  .03+    
260725 F52  .04+  .06-    260808 F52  .06-  .12+    260904 F52  .03+  .01+    
260725 F52  .27-  .04-    260814 F51  .04-  .07-    

Ephemerides (geocentric):
Date (UTC) HH   RA             Dec           delta  r     elong  mag " sig PA
---- --------  ------------   ------------  ------ ------ -----  --- --------
2026 09 04 16  23 28 22.935   +17 05 54.08  .64427 1.6131 154.2 21.2 .041  37
2026 09 04 17  23 28 22.869   +17 05 18.81  .64419 1.6131 154.2 21.2 .041  37
2026 09 04 18  23 28 22.802   +17 04 43.49  .64411 1.6131 154.3 21.2 .041  37
2026 09 04 19  23 28 22.734   +17 04 08.11  .64402 1.6131 154.3 21.2 .042  37
2026 09 04 20  23 28 22.664   +17 03 32.67  .64394 1.6132 154.4 21.2 .042  37
2026 09 04 21  23 28 22.593   +17 02 57.18  .64386 1.6132 154.4 21.2 .043  37
2026 09 04 22  23 28 22.520   +17 02 21.62  .64377 1.6132 154.4 21.2 .043  37
2026 09 04 23  23 28 22.446   +17 01 46.00  .64369 1.6132 154.5 21.2 .043  37
2026 09 05 00  23 28 22.371   +17 01 10.33  .64361 1.6132 154.5 21.2 .044  37
2026 09 05 01  23 28 22.294   +17 00 34.59  .64353 1.6133 154.5 21.2 .044  37
2026 09 05 02  23 28 22.216   +16 59 58.80  .64345 1.6133 154.6 21.2 .044  37
2026 09 05 03  23 28 22.137   +16 59 22.95  .64336 1.6133 154.6 21.2 .045  37
2026 09 05 04  23 28 22.056   +16 58 47.03  .64328 1.6133 154.6 21.2 .045  37
2026 09 05 05  23 28 21.974   +16 58 11.06  .64320 1.6133 154.7 21.2 .046  37
2026 09 05 06  23 28 21.891   +16 57 35.04  .64312 1.6134 154.7 21.2 .046  37
2026 09 05 07  23 28 21.807   +16 56 58.95  .64304 1.6134 154.8 21.2 .046  37
2026 09 05 08  23 28 21.721   +16 56 22.80  .64296 1.6134 154.8 21.2 .047  37
2026 09 05 09  23 28 21.634   +16 55 46.60  .64288 1.6134 154.8 21.2 .047  37
2026 09 05 10  23 28 21.545   +16 55 10.33  .64280 1.6135 154.9 21.2 .048  37
2026 09 05 11  23 28 21.456   +16 54 34.01  .64273 1.6135 154.9 21.2 .048  36
2026 09 05 12  23 28 21.365   +16 53 57.63  .64265 1.6135 154.9 21.2 .048  36
2026 09 05 13  23 28 21.272   +16 53 21.19  .64257 1.6135 155.0 21.2 .049  36
2026 09 05 14  23 28 21.179   +16 52 44.70  .64249 1.6135 155.0 21.2 .049  36
2026 09 05 15  23 28 21.084   +16 52 08.14  .64241 1.6136 155.0 21.2 .050  36
2026 09 05 16  23 28 20.988   +16 51 31.53  .64234 1.6136 155.1 21.2 .050  36
2026 09 05 17  23 28 20.890   +16 50 54.86  .64226 1.6136 155.1 21.2 .050  36
2026 09 05 18  23 28 20.792   +16 50 18.13  .64218 1.6136 155.1 21.2 .051  36
2026 09 05 19  23 28 20.692   +16 49 41.34  .64210 1.6137 155.2 21.2 .051  36
2026 09 05 20  23 28 20.591   +16 49 04.49  .64203 1.6137 155.2 21.2 .051  36
2026 09 05 21  23 28 20.489   +16 48 27.59  .64195 1.6137 155.3 21.2 .052  36
2026 09 05 22  23 28 20.385   +16 47 50.63  .64188 1.6137 155.3 21.2 .052  36
2026 09 05 23  23 28 20.280   +16 47 13.61  .64180 1.6137 155.3 21.2 .053  36
2026 09 06 00  23 28 20.174   +16 46 36.53  .64173 1.6138 155.4 21.2 .053  36
2026 09 06 01  23 28 20.067   +16 45 59.40  .64165 1.6138 155.4 21.2 .053  36
2026 09 06 02  23 28 19.959   +16 45 22.20  .64158 1.6138 155.4 21.2 .054  36
2026 09 06 03  23 28 19.849   +16 44 44.95  .64150 1.6138 155.5 21.2 .054  36
2026 09 06 04  23 28 19.739   +16 44 07.65  .64143 1.6139 155.5 21.2 .055  36
2026 09 06 05  23 28 19.627   +16 43 30.28  .64135 1.6139 155.5 21.2 .055  36
2026 09 06 06  23 28 19.513   +16 42 52.86  .64128 1.6139 155.6 21.2 .055  36
2026 09 06 07  23 28 19.399   +16 42 15.38  .64121 1.6139 155.6 21.2 .056  36
2026 09 06 08  23 28 19.284   +16 41 37.84  .64113 1.6140 155.7 21.2 .056  36
2026 09 06 09  23 28 19.167   +16 41 00.25  .64106 1.6140 155.7 21.2 .057  36
2026 09 06 10  23 28 19.049   +16 40 22.59  .64099 1.6140 155.7 21.2 .057  36
2026 09 06 11  23 28 18.930   +16 39 44.88  .64092 1.6140 155.8 21.2 .057  36
2026 09 06 12  23 28 18.810   +16 39 07.12  .64085 1.6140 155.8 21.2 .058  36
2026 09 06 13  23 28 18.689   +16 38 29.30  .64078 1.6141 155.8 21.2 .058  35
2026 09 06 14  23 28 18.566   +16 37 51.42  .64070 1.6141 155.9 21.2 .059  35
2026 09 06 15  23 28 18.443   +16 37 13.48  .64063 1.6141 155.9 21.2 .059  35